Погода в Минусинске

Погода в Минусинске : погода сейчас, прогноз погоды и архив. Всё, что Вы хотите узнать о погоде в Минусинске!

Поиск расширенной информации на нашем сайте:

Другие новости

Новости СМИ2

Главная страница сайта

Новости сайта

03.07.2017

Напоминаем, что на нашем специализированном сайте Метеоцентр.Азия вы можете получить высокодетализированные автоматические прогнозы погоды по пунктам России, СНГ и мира в авиационном формате (включающие направление и скорость ветра, видимость, явления погоды, количество и форму облачности, нижнюю и верхнюю границу облачности).


Погода в Минусинске - сегодня

Время (UTC), дата Ветер
(°,м/с) 
Видим.   Явления Облачность Т
(°С)
Тd
(°С)
f(%) Тe
(°С)
Pmin
(гПа)
dP
(гПа)
Po
(мм)
O2
(г/м3)
Тmin Tmax R s Состояние
почвы
12 15.06.18 210 (ЮЗ) 20000 м    3/3 1000 м 
[Cu Sc]
+20.5 +7 42 +21  1012.6  737  275    +20.7       
15 15.06.18 тихо ()   20000 м    ясно 
+13.8 +9.3 74 +14  1013.3  737  281           
18 15.06.18 тихо ()   н/о    ясно 
+9 +7.3 89 +9  1013.9  737  286           
21 15.06.18 тихо ()   20000 м  местами туман поземный  ясно 
+6 +5.5 97 +6  1014.2  737  290           
00 16.06.18 тихо ()   20000 м    6/0 верхняя 
[Ci fib]
+11.6 +8.4 81 +12  1013.7  0.1  738  284  +5.3        влажная 
03 16.06.18 170 (Ю) 20000 м    8/0 средняя, верхняя 
[Ac trans|Ci fib]
+17.7 +10.2 61 +21  1012.6  -0.4  737  277           
06 16.06.18 160 (Ю) 20000 м    4/3 1000 м средняя, верхняя 
[Cu hum|Ac lent|Ci fib]
+22.7 +7.6 38 +23  1011  -1.1  736  273           
09 16.06.18 100 (В) 20000 м    8/3 1000 м верхняя 
[Cu med, cong|Cc]
+24.3 +8.5 37 +24  1009.8  -0.9  736  271           
12 16.06.18 350 (С) 20000 м    9/3 1000 м верхняя 
[Cu med, cong|Ci]
+24.4 +8.1 35 +24  1009.8  736  271    +25.2       
15 16.06.18 030 (СВ) 20000 м    8/3 1000 м верхняя 
[Sc diur, vesp|Ci fib]
+20.1 +11 56 +23  1011.2  0.8  736  274           
18 16.06.18 тихо ()   н/о    3/3 1000 м 
[Sc]
+12.4 +9.7 84 +14  1012.4  0.5  737  282           
21 16.06.18 тихо ()   20000 м  местами туман поземный  4/3 1000 м верхняя 
[Sc|Ci fib]
+9.4 +8.6 95 +9  1013  0.2  737  285           
00 17.06.18 240 (ЮЗ) 20000 м    10/3 1000 м средняя, верхняя 
[Sc|Ac trans|Cc]
+14.8 +11.1 78 +19  1013  0.6  737  280  +8.1        сухая 
03 17.06.18 130 (ЮВ) 20000 м    4/0 верхняя 
[Ci fib]
+21.1 +11 52 +24  1011.8  -0.5  737  274           
06 17.06.18 180 (Ю) 20000 м    3/0 верхняя 
[Ci fib]
+26.4 +10.6 37 +29  1009.7  -1.5  736  268           
09 17.06.18 тихо ()   20000 м    4/3 1000 м верхняя 
[Cu med, cong|Ci fib]
+28.5 +10.6 33 +31  1008.3  -1.2  735  266           
12 17.06.18 050 (СВ) 20000 м    3/0 верхняя 
[Ci fib]
+28.5 +10.3 32 +30  1007.5  -0.8  734  266    +29.2       
15 17.06.18 070 (В) 20000 м    ясно 
+22.7 +11.3 49 +26  1008.1  734  271           
18 17.06.18 030 (СВ) н/о    ясно 
+15.4 +10.9 75 +20  1009.1  0.3  735  278           
21 17.06.18 020 (С) 20000 м    ясно 
+12.4 +10.1 86 +16  1008.6  -0.9  734  281           
00 18.06.18 030 (СВ) 20000 м    3/0 верхняя 
[Ci fib]
+19.9 +11.4 58 +25  1007  -0.6  733  273  +11.2        сухая 
03 18.06.18 090 (В) 20000 м    9/0 верхняя 
[Ci fib]
+25.8 +10.2 37 +28  1005.1  -1.4  732  268           
06 18.06.18 100 (В) 20000 м    9/0 верхняя 
[Cs]
+29.6 +13.4 37 +36  1002.4  -2.3  731  263           
09 18.06.18 110 (В) 20000 м    10/0 верхняя 
[Cs]
+32 +10 26 +34  1000.2  -1.9  729  261           
12 18.06.18 050 (СВ) 20000 м    9/3 1000 м средняя, верхняя 
[Sc|Ac As|Ci fib]
+30.1 +11.8 32 +34  999.7  -0.6  729  262    +32.5       
Время (UTC), дата Ветер
(°,м/с) 
Видим.   Явления Облачность Т
(°С)
Тd
(°С)
f(%) Тe
(°С)
Pmin
(гПа)
dP
(гПа)
Po
(мм)
O2
(г/м3)
Тmin Tmax R s Состояние
почвы

Для получения пояснительной информации подведите курсор к названию столбца.

ПОГОДА в Минусинске - архив

Всё, что Вы хотите узнать о погоде в Минусинске - удобно и подробно!

Выберите нужную дату (начиная с 1 января 2015* года) и нажмите кнопку "Найти".
Будут отображены архивные сводки погоды по пункту Минусинск, начиная с указанной даты.


Отображать данные в формате CSV (для использования в таблицах Excel)


Внимание! Наш архив погоды предназначен исключительно для личного некоммерческого использования в познавательных целях. Если Вам необходимы официальные справки о состоянии погоды (для производственных, юридических, коммерческих и т.п. целей), обращайтесь в органы Росгидромета.

*Примечание: данная дата относится к архиву по метеостанциям СССР (Россия, СНГ, Балтия).
Архив по метеостанциям Зарубежной Европы и Азии (кроме Китая) хранится 10 дней, по другим регионам земного шара (Китай, Африка, Америка, Австралия, Океания) - 1 день.

Минусинск - район местоположения метеостанции


Название, широта, долгота, высота метеостанции:
Минусинск 53.7°ш. 91.7°д. 254 м над ур. моря [Российская Федерация]

Дополнительная информация

В oтличие oт бoльшинства пoгoдных сайтoв мы публикуем пoдрoбную метеoинфoрмацию в детальнoм прoфессиoнальнoм фoрмате.

Характеристики температуры и влажнoсти вoздуха измеряются на высoте 2 м в тени вдали oт зданий и деревьев.
Скoрoсть ветра измеряется на высoте 10 м (на урoвне рoста челoвека скoрoсть ветра ниже в 1.5-2 раза). Если метеoстанция нахoдится в гoрoде или в лесу, тo скoрoсть ветра занижена на 2-4 м/с пo сравнению с oткрытым местoм. Скoрoсть ветра над акватoриями крупных рек и oзёр, а также на вершинах хoлмoв на 2-5 м/с выше, чем в oбычных услoвиях.
Атмoсфернoе давление в разных тoчках местнoсти мoжет значительнo oтличаться oт давления на метеoстанции, в зависимoсти oт услoвий рельефа (при пoдъёме на 10 м давление пoнижается примернo на 1 мм рт.ст.).